Location: Bjelajci
(45.0103°N, 16.1758°E)
Time: 19:55:13
(UTC+00:00)

Cosmos 1869 Rocket - Pass Details

Date: 14 July 2020
Orbit: 605 x 633 km, 82.5° (Epoch: 05 August)

Event Time Altitude Azimuth Distance (km) Brightness Sun altitude
Exits shadow 00:27:33 47° 158° (SSE) 811 3.8 -20.5°
Maximum altitude 00:28:39 67° 96° (E) 660 3.7 -20.4°
Drops below altitude 10° 00:32:58 10° 14° (NNE) 1,970 7.3 -20.2°
Sets 00:35:13 0° 12° (NNE) 2,881 8.5 -20.0°
